Location: Unspecified
(52.4292°N, 19.3359°E)
Time: 00:18:37
(UTC+02:00)

SR - Pass Details

Date: 28 May 2024
Orbit: 580 x 858 km, 66.7° (Epoch: 12 June)

Event Time Altitude Azimuth Distance (km) Brightness Sun altitude
Rises 02:47:05 0° 310° (NW) 2,857 ? -11.0°
Reaches altitude 10° 02:49:59 10° 291° (WNW) 1,923 ? -10.8°
Maximum altitude 02:52:46 17° 250° (WSW) 1,500 ? -10.6°
Enters shadow 02:54:20 14° 224° (SW) 1,635 ? -10.5°
Drops below altitude 10° 02:55:30 10° 209° (SSW) 1,893 - -10.4°
Sets 02:58:20 0° 189° (S) 2,792 - -10.2°
